Terminal Aerodrome Forecast
Issued by NWS Knoxville/Tri Cities, TN

Home | Current Version | Previous Version | Text Only | Print | Product List | Glossary On
Versions: 1 2 3 4 5 6 7 8 9 10 11 12 13 14 15 16 17 18 19 20 21 22 23 24 25 26 27 28 29 30 31 32 33 34 35
000
FTUS44 KMRX 231610 AAB
TAFTRI
TAF AMD
KTRI 231610Z 2316/2412 22007KT P6SM VCSH BKN015 OVC025
     FM231800 25006KT P6SM VCTS BKN025CB OVC100
     FM240100 27003KT P6SM VCTS SCT035CB BKN150 BKN250
     FM240600 00000KT 5SM BR OVC100
     FM241000 00000KT 2SM BR SCT007 BKN100=

USA.gov is the U.S. government's official web portal to all federal, state and local government web resources and services.